When you browse on this site, cookies collect data to enhance your experience and personalize the content and advertising you see.
Visit our Privacy Policy to learn more. By continuing to use the site, you agree to this use of cookies and data.
  • In United Kingdom
  • List of Countries
  • For 7 days
  • Water Temperature
  • Satellite Maps
  • Weather Map
  • Weather Widgets
  • user-avatar
    Login

    Hourly Weather Port Said

    Today, 21 March, Thursday

    Time Temperature Precipitation Wind Pressure Humidity
    00:00 +17°C° 0 mm 3 mps 763 mmHg 85%
    01:00 +17°C° 0 mm 3 mps 763 mmHg 87%
    02:00 +16°C° 0 mm 3 mps 762 mmHg 89%
    03:00 +16°C° 0 mm 3 mps 762 mmHg 89%
    04:00 +16°C° 0 mm 3 mps 762 mmHg 90%
    05:00 +16°C° 0 mm 3 mps 762 mmHg 90%
    06:00 +17°C° 0 mm 3 mps 762 mmHg 84%
    07:00 +18°C° 0 mm 3 mps 762 mmHg 78%
    08:00 +19°C° 0 mm 3 mps 762 mmHg 72%
    09:00 +20°C° 0 mm 3 mps 762 mmHg 62%
    10:00 +21°C° 0 mm 4 mps 763 mmHg 53%
    11:00 +22°C° 0 mm 4 mps 763 mmHg 44%
    12:00 +23°C° 0 mm 4 mps 762 mmHg 42%
    13:00 +23°C° 0 mm 5 mps 762 mmHg 39%
    14:00 +25°C° 0 mm 5 mps 762 mmHg 37%
    15:00 +23°C° 0 mm 5 mps 762 mmHg 41%
    16:00 +22°C° 0 mm 5 mps 762 mmHg 46%
    17:00 +21°C° 0 mm 5 mps 762 mmHg 50%
    18:00 +20°C° 0 mm 5 mps 762 mmHg 58%
    19:00 +19°C° 0 mm 5 mps 762 mmHg 66%
    20:00 +18°C° 0 mm 4 mps 763 mmHg 75%
    21:00 +18°C° 0 mm 4 mps 763 mmHg 76%
    22:00 +18°C° 0 mm 4 mps 763 mmHg 77%
    23:00 +17°C° 0 mm 3 mps 763 mmHg 78%

    Tomorrow, 22 March, Friday

    Time Temperature Precipitation Wind Pressure Humidity
    00:00 +17°C° 0 mm 3 mps 763 mmHg 79%
    01:00 +17°C° 0 mm 2 mps 763 mmHg 81%
    02:00 +16°C° 0 mm 2 mps 763 mmHg 82%
    03:00 +16°C° 0 mm 2 mps 763 mmHg 84%
    04:00 +16°C° 0 mm 2 mps 763 mmHg 85%
    05:00 +15°C° 0 mm 1 mps 763 mmHg 86%
    06:00 +16°C° 0 mm 1 mps 763 mmHg 81%
    07:00 +18°C° 0 mm 1 mps 763 mmHg 75%
    08:00 +19°C° 0 mm 1 mps 763 mmHg 70%
    09:00 +20°C° 0 mm 2 mps 763 mmHg 61%
    10:00 +21°C° 0 mm 2 mps 763 mmHg 51%
    11:00 +24°C° 0 mm 3 mps 763 mmHg 42%
    12:00 +24°C° 0 mm 3 mps 763 mmHg 39%
    13:00 +25°C° 0 mm 4 mps 762 mmHg 37%
    14:00 +25°C° 0 mm 4 mps 762 mmHg 34%
    15:00 +25°C° 0 mm 4 mps 762 mmHg 36%
    16:00 +23°C° 0 mm 4 mps 761 mmHg 39%
    17:00 +22°C° 0 mm 4 mps 761 mmHg 41%
    18:00 +21°C° 0 mm 4 mps 762 mmHg 48%
    19:00 +20°C° 0 mm 4 mps 762 mmHg 55%
    20:00 +19°C° 0 mm 4 mps 762 mmHg 62%
    21:00 +19°C° 0 mm 4 mps 762 mmHg 63%
    22:00 +19°C° 0 mm 4 mps 762 mmHg 64%
    23:00 +19°C° 0 mm 4 mps 762 mmHg 66%

    Day after tomorrow, 23 March, Saturday

    Time Temperature Precipitation Wind Pressure Humidity
    00:00 +18°C° 0 mm 3 mps 762 mmHg 67%
    01:00 +18°C° 0 mm 3 mps 761 mmHg 69%
    02:00 +18°C° 0 mm 3 mps 761 mmHg 70%
    03:00 +18°C° 0 mm 2 mps 761 mmHg 71%
    04:00 +17°C° 0 mm 2 mps 761 mmHg 71%
    05:00 +17°C° 0 mm 2 mps 760 mmHg 72%
    06:00 +18°C° 0 mm 3 mps 760 mmHg 66%
    07:00 +19°C° 0 mm 3 mps 760 mmHg 60%
    08:00 +20°C° 0 mm 3 mps 760 mmHg 53%
    09:00 +21°C° 0 mm 4 mps 760 mmHg 47%
    10:00 +22°C° 0 mm 4 mps 760 mmHg 41%
    11:00 +23°C° 0 mm 4 mps 760 mmHg 36%
    12:00 +23°C° 0 mm 4 mps 760 mmHg 35%
    13:00 +23°C° 0 mm 4 mps 759 mmHg 35%
    14:00 +25°C° 0 mm 5 mps 759 mmHg 34%
    15:00 +23°C° 0 mm 5 mps 759 mmHg 37%
    16:00 +22°C° 0 mm 4 mps 758 mmHg 41%
    17:00 +21°C° 0 mm 4 mps 758 mmHg 44%
    18:00 +20°C° 0 mm 4 mps 758 mmHg 47%
    19:00 +20°C° 0 mm 4 mps 759 mmHg 51%
    20:00 +19°C° 0 mm 4 mps 759 mmHg 55%
    21:00 +19°C° 0 mm 4 mps 759 mmHg 56%
    22:00 +19°C° 0 mm 3 mps 758 mmHg 57%
    23:00 +19°C° 0 mm 3 mps 758 mmHg 58%

    24 March, Sunday

    Time Temperature Precipitation Wind Pressure Humidity
    00:00 +18°C° 0 mm 3 mps 758 mmHg 61%
    01:00 +17°C° 0 mm 3 mps 757 mmHg 63%
    02:00 +17°C° 0 mm 4 mps 757 mmHg 66%
    03:00 +17°C° 0 mm 3 mps 757 mmHg 68%
    04:00 +16°C° 0 mm 2 mps 757 mmHg 70%
    05:00 +16°C° 0 mm 1 mps 756 mmHg 72%
    06:00 +16°C° 0 mm 1 mps 757 mmHg 68%
    07:00 +17°C° 0 mm 2 mps 757 mmHg 64%
    08:00 +18°C° 0 mm 2 mps 757 mmHg 60%
    09:00 +19°C° 0 mm 3 mps 757 mmHg 53%
    10:00 +20°C° 0 mm 3 mps 757 mmHg 46%
    11:00 +21°C° 0 mm 3 mps 757 mmHg 39%
    12:00 +22°C° 0 mm 4 mps 756 mmHg 36%
    13:00 +23°C° 0 mm 5 mps 756 mmHg 32%
    14:00 +24°C° 0 mm 7 mps 755 mmHg 28%
    15:00 +23°C° 0 mm 7 mps 755 mmHg 33%
    16:00 +22°C° 0 mm 8 mps 755 mmHg 37%
    17:00 +21°C° 0 mm 8 mps 755 mmHg 41%
    18:00 +20°C° 0 mm 8 mps 755 mmHg 49%
    19:00 +18°C° 0 mm 7 mps 755 mmHg 57%
    20:00 +16°C° 0 mm 7 mps 756 mmHg 66%
    21:00 +16°C° 0 mm 7 mps 756 mmHg 69%
    22:00 +15°C° 0 mm 6 mps 756 mmHg 73%
    23:00 +14°C° 0 mm 6 mps 756 mmHg 77%

    25 March, Monday

    Time Temperature Precipitation Wind Pressure Humidity
    00:00 +14°C° 0 mm 6 mps 756 mmHg 79%
    01:00 +13°C° 0 mm 5 mps 755 mmHg 81%
    02:00 +13°C° 0 mm 5 mps 755 mmHg 83%
    03:00 +13°C° 0 mm 5 mps 755 mmHg 83%
    04:00 +13°C° 0 mm 4 mps 755 mmHg 83%
    05:00 +13°C° 0 mm 4 mps 755 mmHg 83%
    06:00 +14°C° 0 mm 4 mps 756 mmHg 69%
    07:00 +17°C° 0 mm 4 mps 756 mmHg 55%
    08:00 +17°C° 0 mm 5 mps 757 mmHg 41%
    09:00 +19°C° 0 mm 5 mps 757 mmHg 37%
    10:00 +20°C° 0 mm 6 mps 757 mmHg 34%
    11:00 +20°C° 0 mm 6 mps 757 mmHg 30%
    12:00 +21°C° 0 mm 7 mps 757 mmHg 30%
    13:00 +21°C° 0 mm 8 mps 757 mmHg 29%
    14:00 +21°C° 0 mm 10 mps 757 mmHg 29%
    15:00 +19°C° 0 mm 9 mps 757 mmHg 32%
    16:00 +18°C° 0 mm 8 mps 757 mmHg 36%
    17:00 +17°C° 0 mm 7 mps 758 mmHg 39%
    18:00 +17°C° 0 mm 7 mps 758 mmHg 42%
    19:00 +16°C° 0 mm 6 mps 759 mmHg 45%
    20:00 +15°C° 0 mm 5 mps 759 mmHg 48%
    21:00 +15°C° 0 mm 5 mps 760 mmHg 50%
    22:00 +14°C° 0 mm 4 mps 760 mmHg 52%
    23:00 +14°C° 0 mm 3 mps 760 mmHg 53%

    26 March, Tuesday

    Time Temperature Precipitation Wind Pressure Humidity
    00:00 +13°C° 0 mm 3 mps 760 mmHg 55%
    01:00 +13°C° 0 mm 3 mps 760 mmHg 57%
    02:00 +12°C° 0 mm 3 mps 760 mmHg 59%
    03:00 +12°C° 0 mm 3 mps 760 mmHg 61%
    04:00 +12°C° 0 mm 3 mps 760 mmHg 62%
    05:00 +11°C° 0 mm 3 mps 760 mmHg 64%
    06:00 +12°C° 0 mm 3 mps 760 mmHg 59%
    07:00 +13°C° 0 mm 4 mps 760 mmHg 53%
    08:00 +14°C° 0 mm 4 mps 761 mmHg 48%
    09:00 +17°C° 0 mm 4 mps 760 mmHg 44%
    10:00 +18°C° 0 mm 3 mps 760 mmHg 40%
    11:00 +20°C° 0 mm 3 mps 760 mmHg 36%
    12:00 +21°C° 0 mm 3 mps 760 mmHg 33%
    13:00 +22°C° 0 mm 3 mps 760 mmHg 30%
    14:00 +24°C° 0 mm 3 mps 759 mmHg 27%
    15:00 +22°C° 0 mm 4 mps 759 mmHg 33%
    16:00 +21°C° 0 mm 5 mps 759 mmHg 39%
    17:00 +20°C° 0 mm 6 mps 759 mmHg 45%
    18:00 +19°C° 0 mm 6 mps 760 mmHg 51%
    19:00 +17°C° 0 mm 5 mps 760 mmHg 56%
    20:00 +16°C° 0 mm 5 mps 760 mmHg 61%
    21:00 +17°C° 0 mm 4 mps 760 mmHg 63%
    22:00 +16°C° 0 mm 3 mps 760 mmHg 65%
    23:00 +16°C° 0 mm 2 mps 761 mmHg 66%
    Show more